User: anonymous   Login
Location: 相模原市立博物館
(35.5593°N, 139.3931°E)
Time: 05:16:43
(UTC+09:00)
Language:

AO-73 - Orbit

View from above orbital plane
View from above orbital plane
View from above satellite
View from above satellite

Ground track
Ground track

The orbit data is extracted from the following two-line orbital elements,

1 39444U 13066AE  22019.47778704  .00001283  00000-0  16070-3 0  9999
2 39444  97.6072   0.3266 0057752 160.7307 199.6109 14.82742441439440
Epoch (UTC): 19 January 2022 11:28:00
Eccentricity: 0.0057752
inclination: 97.6072°
perigee height: 580 km
apogee height: 661 km
right ascension of ascending node: 0.3266°
argument of perigee: 160.7307°
revolutions per day: 14.82742441
mean anomaly at epoch: 199.6109°
orbit number at epoch: 43944

The dashed part of the orbit path shows where the satellite is in the earth's shadow,  

DLR